Date String (YYYY-MM-DD hh:mm:ss) UTC,Instrument flags,Ambient pressure (hPa),Sample flow (lpm),Bypass flow (lpm),Sample temperature (°C),Ambient temperature (°C),ASC tube jacket temperature (°C),LED temperature (°C),Box temperature (°C),Sample RH (%),Span deviation,Mass concentration (μg/m³),Mass concentration (μg/m³),Mass concentration (μg/m³)
DateTimeUTC,F1_M11,P_M11,Q1_M11,Q2_M11,T1_M11,T2_M11,T3_M11,T4_M11,T5_M11,U1_M11,ZSPAN_M11,X2_M11,X0_M11,X1_M11
2022-04-10 02:00:00,,0811.3,5.00,0.00,29.7,28.6,00.0,38.5,31.4,05.9,0000.0,0003.59,0012.82,0001.85
2022-04-10 02:01:00,,0811.2,4.97,0.00,29.7,28.6,00.0,38.5,31.5,06.0,0000.0,0003.58,0013.46,0001.85
2022-04-10 02:02:00,,0811.3,5.02,0.00,29.7,28.7,00.0,38.6,31.5,06.1,0000.0,0003.56,0012.46,0001.85
2022-04-10 02:03:00,,0811.4,4.98,0.00,29.7,28.7,00.0,38.6,31.4,06.1,0000.0,0003.56,0012.29,0001.86
2022-04-10 02:04:00,,0811.4,5.01,0.00,29.7,28.7,00.0,38.6,31.4,06.2,0000.0,0003.60,0012.49,0001.86
2022-04-10 02:05:00,,0811.4,4.99,0.00,29.7,28.7,00.0,38.6,31.4,06.3,0000.0,0003.58,0012.42,0001.86
2022-04-10 02:06:00,,0811.4,5.00,0.00,29.7,28.7,00.0,38.6,31.4,06.3,0000.0,0003.56,0012.98,0001.86
2022-04-10 02:07:00,,0811.4,5.00,0.00,29.7,28.8,00.0,38.6,31.4,06.5,0000.0,0003.56,0012.74,0001.85
2022-04-10 02:08:00,,0811.4,4.99,0.00,29.7,28.8,00.0,38.6,31.5,06.7,0000.0,0003.57,0012.74,0001.87
2022-04-10 02:09:00,,0811.4,5.01,0.00,29.7,28.8,00.0,38.6,31.5,06.8,0000.0,0003.63,0013.46,0001.90
2022-04-10 02:10:00,,0811.4,5.00,0.00,29.7,28.8,00.0,38.6,31.5,06.9,0000.0,0003.62,0012.45,0001.91
2022-04-10 02:11:00,,0811.4,4.98,0.00,29.7,28.8,00.0,38.7,31.5,06.9,0000.0,0003.63,0012.39,0001.92
2022-04-10 02:12:00,,0811.4,5.01,0.00,29.7,28.8,00.0,38.7,31.5,07.0,0000.0,0003.60,0011.70,0001.93
2022-04-10 02:13:00,,0811.4,5.00,0.00,29.7,28.7,00.0,38.7,31.5,07.0,0000.0,0003.60,0011.71,0001.94
2022-04-10 02:14:00,,0811.4,4.98,0.00,29.7,28.7,00.0,38.7,31.4,07.0,0000.0,0003.63,0011.72,0001.94
2022-04-10 02:15:00,,0811.4,5.00,0.00,29.7,28.7,00.0,38.7,31.4,07.1,0000.0,0003.68,0012.18,0001.95
2022-04-10 02:16:00,,0811.4,5.00,0.00,29.7,28.7,00.0,38.7,31.5,07.1,0000.0,0003.71,0012.34,0001.95
2022-04-10 02:17:00,,0811.4,4.99,0.00,29.7,28.7,00.0,38.7,31.5,07.2,0000.0,0003.70,0011.86,0001.97
2022-04-10 02:18:00,,0811.5,5.01,0.00,29.7,28.7,00.0,38.7,31.5,07.2,0000.0,0003.70,0011.84,0001.99
2022-04-10 02:19:00,,0811.4,5.01,0.00,29.7,28.7,00.0,38.7,31.5,07.3,0000.0,0003.73,0011.78,0001.99
2022-04-10 02:20:00,,0811.5,4.98,0.00,29.7,28.7,00.0,38.7,31.4,07.3,0000.0,0003.72,0010.94,0001.98
2022-04-10 02:21:00,,0811.4,5.01,0.00,29.7,28.7,00.0,38.7,31.4,07.3,0000.0,0003.72,0011.01,0001.97
2022-04-10 02:22:00,,0811.4,4.99,0.00,29.7,28.7,00.0,38.7,31.5,07.4,0000.0,0003.69,0010.99,0001.97
2022-04-10 02:23:00,,0811.4,5.00,0.00,29.7,28.7,00.0,38.7,31.5,07.4,0000.0,0003.66,0011.55,0001.95
2022-04-10 02:24:00,,0811.3,5.01,0.00,29.7,28.7,00.0,38.7,31.4,07.5,0000.0,0003.68,0011.96,0001.93
2022-04-10 02:25:00,,0811.3,4.98,0.00,29.7,28.7,00.0,38.7,31.5,07.6,0000.0,0003.68,0011.94,0001.93
2022-04-10 02:26:00,,0811.2,5.01,0.00,29.7,28.6,00.0,38.7,31.5,07.7,0000.0,0003.69,0011.67,0001.91
2022-04-10 02:27:00,,0811.2,4.99,0.00,29.7,28.6,00.0,38.6,31.4,07.8,0000.0,0003.67,0011.79,0001.90
2022-04-10 02:28:00,,0811.2,5.01,0.00,29.7,28.6,00.0,38.6,31.4,07.8,0000.0,0003.68,0012.23,0001.86
2022-04-10 02:29:00,,0811.3,5.00,0.00,29.7,28.5,00.0,38.6,31.4,07.8,0000.0,0003.68,0012.14,0001.83
2022-04-10 02:30:00,,0811.3,4.98,0.00,29.7,28.5,00.0,38.6,31.4,07.8,0000.0,0003.70,0011.96,0001.81
2022-04-10 02:31:00,,0811.4,5.02,0.00,29.7,28.5,00.0,38.6,31.4,07.8,0000.0,0003.71,0012.86,0001.79
2022-04-10 02:32:00,,0811.4,4.98,0.00,29.7,28.5,00.0,38.6,31.4,07.9,0000.0,0003.75,0013.20,0001.80
2022-04-10 02:33:00,,0811.4,5.01,0.00,29.7,28.5,00.0,38.6,31.4,07.9,0000.0,0003.77,0013.00,0001.80
2022-04-10 02:34:00,,0811.4,5.00,0.00,29.7,28.5,00.0,38.6,31.4,07.9,0000.0,0003.82,0012.37,0001.80
2022-04-10 02:35:00,,0811.4,4.99,0.00,29.7,28.6,00.0,38.6,31.4,07.9,0000.0,0003.82,0011.94,0001.79
2022-04-10 02:36:00,,0811.3,5.01,0.00,29.6,28.6,00.0,38.6,31.4,08.0,0000.0,0003.86,0012.50,0001.79
2022-04-10 02:37:00,,0811.3,4.98,0.00,29.6,28.5,00.0,38.6,31.4,08.0,0000.0,0003.78,0012.50,0001.79
2022-04-10 02:38:00,,0811.3,5.01,0.00,29.6,28.5,00.0,38.6,31.4,08.0,0000.0,0003.80,0013.13,0001.79
2022-04-10 02:39:00,,0811.2,5.01,0.00,29.6,28.5,00.0,38.6,31.4,08.0,0000.0,0003.80,0013.33,0001.81
2022-04-10 02:40:00,,0811.3,5.00,0.00,29.6,28.5,00.0,38.6,31.4,08.0,0000.0,0003.82,0014.15,0001.81
2022-04-10 02:41:00,,0811.2,4.99,0.00,29.6,28.5,00.0,38.6,31.4,08.0,0000.0,0003.76,0014.10,0001.81
2022-04-10 02:42:00,,0811.2,5.00,0.00,29.6,28.5,00.0,38.6,31.3,08.1,0000.0,0003.76,0013.97,0001.81
2022-04-10 02:43:00,,0811.2,5.02,0.00,29.6,28.5,00.0,38.6,31.3,08.1,0000.0,0003.73,0014.76,0001.80
2022-04-10 02:44:00,,0811.2,4.98,0.00,29.6,28.5,00.0,38.6,31.3,08.1,0000.0,0003.73,0014.30,0001.80
2022-04-10 02:45:00,,0811.2,5.01,0.00,29.6,28.5,00.0,38.6,31.3,08.1,0000.0,0003.69,0014.15,0001.80
2022-04-10 02:46:00,,0811.3,5.00,0.00,29.6,28.5,00.0,38.6,31.3,08.2,0000.0,0003.69,0014.24,0001.81
2022-04-10 02:47:00,,0811.3,5.00,0.00,29.6,28.5,00.0,38.6,31.3,08.2,0000.0,0003.71,0014.39,0001.80
2022-04-10 02:48:00,,0811.2,5.01,0.00,29.6,28.6,00.0,38.6,31.3,08.2,0000.0,0003.72,0014.33,0001.79
2022-04-10 02:49:00,,0811.1,4.99,0.00,29.6,28.6,00.0,38.6,31.3,08.3,0000.0,0003.70,0013.74,0001.79
2022-04-10 02:50:00,,0811.1,5.02,0.00,29.6,28.5,00.0,38.6,31.3,08.3,0000.0,0003.68,0013.16,0001.78
2022-04-10 02:51:00,,0811.1,4.99,0.00,29.6,28.5,00.0,38.6,31.3,08.4,0000.0,0003.65,0012.29,0001.79
2022-04-10 02:52:00,,0811.1,4.99,0.00,29.6,28.4,00.0,38.6,31.3,08.4,0000.0,0003.64,0012.30,0001.79
2022-04-10 02:53:00,,0811.1,5.02,0.00,29.6,28.4,00.0,38.6,31.3,08.4,0000.0,0003.65,0011.96,0001.79
2022-04-10 02:54:00,,0811.1,5.00,0.00,29.6,28.4,00.0,38.6,31.3,08.4,0000.0,0003.60,0010.05,0001.78
2022-04-10 02:55:00,,0811.1,4.99,0.00,29.6,28.4,00.0,38.5,31.3,08.5,0000.0,0003.57,0009.94,0001.78
2022-04-10 02:56:00,,0811.1,5.01,0.00,29.6,28.4,00.0,38.5,31.3,08.5,0000.0,0003.55,0009.99,0001.76
2022-04-10 02:57:00,,0811.1,5.00,0.00,29.6,28.4,00.0,38.5,31.3,08.6,0000.0,0003.56,0010.84,0001.76
2022-04-10 02:58:00,,0811.0,4.98,0.00,29.6,28.4,00.0,38.5,31.3,08.7,0000.0,0003.49,0010.86,0001.76
2022-04-10 02:59:00,,0811.1,5.01,0.00,29.6,28.4,00.0,38.5,31.3,08.7,0000.0,0003.50,0011.26,0001.79
